Home > Weather > Augsburg > Past weeks

Flag for Germany Weather for the Past 2 Weeks in Augsburg, Bavaria, Germany

Now
30 °F

Fog.


Feels Like: 30 °F
Forecast: 35 / 49 °F
Wind: 2 mph from South

Location: Lechfeld

Current Time: Feb 6, 2016 at 2:31:56 AM

Latest Report: Feb 6, 2016 at 1:20 AM


Visibility: N/A

Pressure: 30.21 "Hg

Humidity: 100%

Dew point: 30 °F

Location of AugsburgLocation

Historic Weather in Augsburg — Graph

°F

Augsburg Temperature Yesterday

Maximum temperature yesterday: 45 °F (at 2:20 PM)
Minimum temperature yesterday: 27 °F (at 11:20 PM)
Average temperature yesterday: 37 °F

High & Low Weather Summary for the Past Weeks

 TemperatureHumidityPressure
High55 °F (Jan 26, 1:20 PM)100% (Jan 22, 6:20 AM)30.63 "Hg (Jan 22, 6:20 AM)
Low9 °F (Jan 22, 12:20 AM)44% (Jan 25, 1:20 PM)29.89 "Hg (Jan 30, 10:20 PM)
Average40 °F83%30.26 "Hg
* Reported Jan 22 12:20 AM — Feb 6 12:20 AM, Augsburg, Weather by CustomWeather, © 2016

Note: Actual official high and low records may vary slightly from our data, if they occured in-between our weather recording intervals... More about our weather records

Advertising

Augsburg Weather History for the Previous 24 Hours

 ConditionsComfort  
Time TempWeatherWind HumidityBarometerVisibility
12:20 AM
Sat, Feb 6
32 °FPassing clouds.6 mph100%30.21 "HgN/A
11:20 PM
Fri, Feb 5
27 °FIce fog.2 mph100%30.21 "Hg0 mi
10:20 PM28 °FFog.3 mph100%30.24 "HgN/A
9:20 PM30 °FFog.5 mph100%30.27 "HgN/A
8:46 PM28 °FIce fog.3 mph100%30.27 "Hg1 mi
8:20 PM34 °FFog.1 mph93%30.27 "HgN/A
7:20 PM36 °FPassing clouds.6 mph93%30.27 "HgN/A
6:20 PM39 °FPassing clouds.3 mph87%30.30 "HgN/A
5:20 PM43 °FBroken clouds.7 mph81%30.30 "HgN/A
4:20 PM45 °FPartly sunny.7 mph81%30.30 "HgN/A
3:20 PM45 °FPartly sunny.7 mph76%30.30 "HgN/A
2:20 PM45 °FBroken clouds.12 mph76%30.30 "HgN/A
1:20 PM43 °FBroken clouds.12 mph76%30.33 "HgN/A
12:20 PM41 °FPartly sunny.12 mph81%30.36 "HgN/A
11:20 AM41 °FBroken clouds.12 mph87%30.36 "HgN/A
10:20 AM39 °FPartly sunny.9 mph93%30.36 "HgN/A
9:20 AM37 °FPartly sunny.6 mph100%30.36 "HgN/A
8:56 AM37 °FPartly sunny.5 mph93%30.36 "HgN/A
8:20 AM37 °FPartly sunny.3 mph93%30.36 "HgN/A
7:20 AM37 °FDrizzle. Mostly cloudy.5 mph93%30.36 "Hg5 mi
6:20 AM36 °FDrizzle. Mostly cloudy.5 mph93%30.33 "Hg4 mi
5:20 AM36 °FLight rain. Mostly cloudy.2 mph100%30.33 "HgN/A
4:20 AM37 °FLight rain. Mostly cloudy.6 mph93%30.30 "HgN/A
3:20 AM37 °FLight rain. Mostly cloudy.9 mph93%30.27 "HgN/A
2:20 AM36 °FLight rain. Mostly cloudy.9 mph100%30.27 "HgN/A
Weather by CustomWeather, © 2016

See weather overviewHow to use our weather pages